[[{"header":{"parameterUnit":"m.s-1","parameterCategory":1,"la1":30.2991,"la2":30.254,"lo1":-89.0895,"lo2":-89.0444,"dy":0.0017,"dx":0.0017,"nx":28,"ny":28,"refTime":"2023-09-27T21:00:00:Z","depth":0,"parameterNumber":2,"parameterNumberName":"U-component_of_WINDS"},"data":[0,0,0,0,0,0,0,0,0,0,0,0,0,0,0,0,0,0,0,0,0,0,0,0,0,0,0,0,0,0,0,0,0,0,0,0,0,0,0,0,0,0,0,0,0,0,0,0,0,0,0,0,0,0,0,0,0,0,-2.9106,-2.9106,0,-2.9048,-2.9047,-2.9047,-2.8932,-2.8929,-2.8927,-2.8925,-2.8868,-2.8869,-2.8869,0,0,0,0,0,0,0,0,0,0,0,0,0,-2.9124,-2.9124,-2.9107,-2.9106,-2.9105,-2.9048,-2.9047,-2.9047,-2.8932,-2.8929,-2.8927,-2.8924,-2.8868,-2.8869,-2.8869,0,0,0,0,0,0,0,0,0,0,0,0,0,-2.9096,-2.9124,-2.9107,-2.9041,-2.9035,-2.9048,-2.9047,-2.9046,-2.8933,-2.8929,-2.8926,-2.8923,-2.8868,-2.8869,-2.887,-2.8943,0,0,-2.8872,-2.8873,0,0,0,0,0,0,0,0,-2.9098,-2.9095,-2.9051,-2.9046,-2.9038,-2.8994,-2.9032,-2.9012,-2.8934,-2.8972,-2.8925,-2.8921,-2.8913,-2.891,-2.8906,-2.8941,-2.8938,-2.8872,-2.8873,-2.8873,-2.8874,0,0,0,0,0,0,0,-2.91,-2.9097,-2.9083,-2.9051,-2.9043,-2.9016,-2.9008,-2.9028,-2.8962,-2.8968,-2.8959,-2.8954,-2.8909,-2.8906,-2.8904,-2.8937,-2.8872,-2.8873,-2.8874,-2.8874,-2.9034,-2.9037,0,0,0,0,0,0,-2.9111,-2.91,-2.9085,-2.9082,-2.906,-2.9019,-2.901,-2.9012,-2.8962,-2.8951,-2.8957,-2.8949,-2.8906,-2.8903,-2.8902,-2.8988,-2.8873,-2.8874,-2.8875,-2.903,-2.9034,-2.9038,0,0,0,0,0,0,-2.9111,-2.911,-2.9088,-2.9088,-2.9083,-2.9022,-2.9025,-2.9012,-2.9009,-2.8953,-2.8941,-2.8966,-2.8903,-2.8901,-2.8935,-2.8984,-2.8875,-2.8875,-2.9026,-2.9031,-2.9036,-2.9159,0,0,0,0,0,0,-2.9112,-2.9111,-2.9138,-2.909,-2.9084,-2.912,-2.9027,-2.9013,-2.9011,-2.9,-2.8959,-2.8948,-2.89,-2.8934,-2.8936,-2.8984,-2.8876,-2.9021,-2.9028,-2.9035,-2.9151,-2.9168,-2.9184,0,0,0,0,0,-2.9113,-2.9174,-2.9139,-2.9138,-2.9115,-2.9123,-2.912,-2.9063,-2.9015,-2.9042,-2.9007,-2.895,-2.8978,-2.8938,-2.8939,-2.8988,-2.9017,-2.9026,-2.9034,-2.9143,-2.9165,-2.9183,0,0,0,0,0,0,-2.923,-2.9167,-2.9127,-2.9174,-2.9155,-2.9104,-2.9136,-2.9087,-2.9081,-2.9071,-2.9001,-2.8993,-2.9037,-2.9015,-2.8972,-2.9059,-2.8989,-2.8998,-2.9072,-2.9092,-2.9108,-2.9114,-2.8877,0,0,0,0,0,-2.9261,-2.9272,-2.9216,-2.9263,-2.9255,-2.9198,-2.9199,-2.9157,-2.9134,-2.9126,-2.9092,-2.9074,-2.9079,-2.9084,-2.9085,-2.9146,-2.9138,-2.9181,-2.9197,-2.9211,-2.9221,-2.9255,-2.9275,-2.9066,-2.9066,-2.9065,0,0,-2.9325,-2.9292,-2.9303,-2.9286,-2.9266,-2.9281,-2.9192,-2.921,-2.9221,-2.9129,-2.916,-2.9135,-2.911,-2.9159,-2.9179,-2.9143,-2.9276,-2.9222,-2.9233,-2.9235,-2.9266,-2.9286,-2.9304,-2.9071,-2.907,-2.9069,0,0,-2.9451,-2.9426,-2.9463,-2.9446,-2.9417,-2.9378,-2.9388,-2.9344,-2.9325,-2.9354,-2.9286,-2.9299,-2.9308,-2.9294,-2.9288,-2.9412,-2.9361,-2.9414,-2.9501,-2.9536,-2.9553,-2.9567,-2.9615,-2.9632,-2.9423,-2.9423,-2.9424,0,-2.9535,-2.9553,-2.9489,-2.9513,-2.9509,-2.9426,-2.9466,-2.9451,-2.9425,-2.9425,-2.9384,-2.9396,-2.9373,-2.942,-2.945,-2.9447,-2.9458,-2.9419,-2.9555,-2.9569,-2.9581,-2.9626,-2.9644,-2.943,-2.943,-2.9429,-2.9428,0,-2.966,-2.9674,-2.9708,-2.9685,-2.9684,-2.9716,-2.9659,-2.9667,-2.9625,-2.9592,-2.9625,-2.9595,-2.959,-2.9597,-2.9556,-2.964,-2.9618,-2.9567,-2.9496,-2.9609,-2.965,-2.9667,-2.944,-2.9438,-2.9436,-2.9434,0,0,-2.9857,-2.9799,-2.9814,-2.9804,-2.9767,-2.9777,-2.9806,-2.9801,-2.9811,-2.9796,-2.9821,-2.9832,-2.9785,-2.9779,-2.9736,-2.9766,-2.9871,-2.9711,-2.971,-2.9745,-2.9964,-3.0005,-3.0026,-2.9836,-2.9838,-2.9841,-2.9968,0,-2.9976,-3.0022,-2.9967,-3.0025,-3.004,-2.9962,-2.9988,-2.997,-2.994,-2.9949,-2.9916,-2.9927,-2.9862,-2.9859,-2.9885,-2.9852,-2.9914,-2.9842,-2.9861,-2.9863,-2.9872,-3.0046,-3.0089,-3.021,-2.9983,-2.9985,-2.9987,0,-3.0122,-3.0115,-3.0175,-3.0137,-3.0141,-3.0165,-3.0158,-3.0167,-3.0145,-3.0122,-3.0117,-3.0065,-3.0094,-3.0023,-3.0064,-3.0016,-3.002,-3.0006,-3.0009,-3.0011,-2.9934,-3.0056,-3.0247,-3.0266,-3.0011,-3.0009,-3.0008,0,-3.0264,-3.0269,-3.0306,-3.03,-3.0256,-3.0275,-3.0258,-3.0233,-3.0235,-3.0229,-3.023,-3.0228,-3.0228,-3.0228,-3.0179,-3.0132,-3.0227,-3.0151,-3.0211,-3.0213,-3.0236,-3.0236,-3.0434,-3.0235,-3.0235,-3.0234,-3.0234,0,-3.0405,-3.0445,-3.037,-3.0394,-3.0438,-3.0375,-3.0421,-3.0396,-3.0375,-3.0394,-3.0326,-3.0346,-3.0278,-3.0292,-3.0253,-3.0295,-3.0294,-3.0279,-3.0268,-3.0286,-3.0289,-3.029,-3.0282,-3.0239,-3.0238,-3.0237,-3.0236,0,-3.0571,-3.0522,-3.0559,-3.0514,-3.0505,-3.054,-3.0503,-3.0524,-3.049,-3.0516,-3.0518,-3.0466,-3.0478,-3.0429,-3.0432,-3.0407,-3.047,-3.0444,-3.0477,-3.0471,-3.0535,-3.0531,-3.0742,-3.0768,-3.0551,-3.0553,-3.0554,0,-3.0666,-3.0695,-3.0655,-3.0663,-3.065,-3.0662,-3.0664,-3.0604,-3.0609,-3.0589,-3.0614,-3.062,-3.0623,-3.0647,-3.061,-3.0614,-3.059,-3.0664,-3.059,-3.0608,-3.0595,-3.0595,-3.06,-3.068,-3.0683,-3.0685,-3.0687,0,-3.084,-3.0815,-3.0819,-3.0817,-3.0821,-3.0816,-3.0806,-3.0817,-3.0752,-3.0762,-3.0774,-3.0776,-3.0781,-3.079,-3.0786,-3.077,-3.072,-3.071,-3.0725,-3.0745,-3.0764,-3.0758,-3.0523,-3.0706,-3.0704,-3.0703,-3.0701,-3.0701,-3.0975,-3.0999,-3.0976,-3.0984,-3.0971,-3.0965,-3.0983,-3.0953,-3.0961,-3.096,-3.0924,-3.0944,-3.0925,-3.0915,-3.0905,-3.0921,-3.0887,-3.0907,-3.0913,-3.092,-3.0932,-3.076,-3.092,-3.0919,-3.0919,-3.0918,-3.0918,0,-3.1149,-3.113,-3.1138,-3.1128,-3.1136,-3.1085,-3.1073,-3.1084,-3.1102,-3.1088,-3.1092,-3.1108,-3.1117,-3.1082,-3.1087,-3.1107,-3.1084,-3.1111,-3.111,-3.1108,-3.0961,-3.0949,-3.1129,-3.1129,-3.1129,-3.1129,-3.1129,-3.1129,-3.124,-3.1279,-3.1252,-3.1286,-3.1266,-3.1285,-3.1283,-3.1278,-3.1267,-3.1288,-3.1295,-3.1272,-3.125,-3.1253,-3.1261,-3.125,-3.1257,-3.1292,-3.1275,-3.1138,-3.1118,-3.1098,-3.1087,-3.1293,-3.1294,-3.1421,-3.1422,-3.1423]},{"header":{"parameterUnit":"m.s-1","parameterCategory":1,"la1":30.2991,"la2":30.254,"lo1":-89.0895,"lo2":-89.0444,"dy":0.0017,"dx":0.0017,"nx":28,"ny":28,"refTime":"2023-09-27T21:00:00:Z","depth":0,"parameterNumber":3,"parameterNumberName":"V-component_of_WINDS"},"data":[0,0,0,0,0,0,0,0,0,0,0,0,0,0,0,0,0,0,0,0,0,0,0,0,0,0,0,0,0,0,0,0,0,0,0,0,0,0,0,0,0,0,0,0,0,0,0,0,0,0,0,0,0,0,0,0,0,0,2.0501,2.0501,0,2.045,2.045,2.0449,2.0408,2.0408,2.0407,2.0407,2.035,2.0349,2.0348,0,0,0,0,0,0,0,0,0,0,0,0,0,2.056,2.0559,2.0501,2.0501,2.05,2.045,2.045,2.0449,2.0408,2.0408,2.0407,2.0407,2.0351,2.0349,2.0348,0,0,0,0,0,0,0,0,0,0,0,0,0,2.0524,2.0559,2.0501,2.0474,2.0471,2.045,2.045,2.0449,2.0408,2.0408,2.0407,2.0406,2.0351,2.035,2.0348,2.035,0,0,2.0343,2.0342,0,0,0,0,0,0,0,0,2.0526,2.0522,2.0478,2.0476,2.0472,2.0435,2.0449,2.0415,2.0408,2.0432,2.0407,2.0406,2.0379,2.0375,2.0366,2.0347,2.0344,2.0343,2.0342,2.0341,2.034,0,0,0,0,0,0,0,2.0529,2.0524,2.0481,2.0478,2.0474,2.0463,2.0457,2.0443,2.0409,2.043,2.0427,2.0421,2.0377,2.0368,2.0365,2.0344,2.0343,2.0341,2.034,2.0339,2.0321,2.0322,0,0,0,0,0,0,2.0536,2.0526,2.0483,2.0479,2.0498,2.0462,2.0456,2.0447,2.0409,2.0403,2.0422,2.042,2.0371,2.0367,2.0363,2.0361,2.0341,2.0339,2.0338,2.0321,2.0321,2.0322,0,0,0,0,0,0,2.0537,2.0532,2.0485,2.0502,2.0495,2.0462,2.0453,2.0447,2.0438,2.0403,2.0397,2.0419,2.0371,2.0365,2.0353,2.0358,2.0339,2.0337,2.032,2.0321,2.0322,2.0358,0,0,0,0,0,0,2.0539,2.0533,2.0534,2.0502,2.0494,2.0477,2.0453,2.0446,2.0436,2.0432,2.0399,2.0393,2.037,2.0356,2.0351,2.0355,2.0336,2.032,2.0321,2.0322,2.0356,2.036,2.0363,0,0,0,0,0,2.0541,2.0546,2.0535,2.053,2.0495,2.0478,2.0473,2.0447,2.0436,2.0436,2.0414,2.0394,2.0359,2.0355,2.035,2.0353,2.0319,2.032,2.0321,2.0354,2.0359,2.0363,0,0,0,0,0,0,2.0578,2.0541,2.0528,2.0523,2.0504,2.0471,2.047,2.0453,2.0435,2.0433,2.04,2.0393,2.0384,2.0368,2.0364,2.0352,2.0336,2.0336,2.0363,2.0367,2.0371,2.0374,2.0334,0,0,0,0,0,2.0586,2.0576,2.0544,2.0542,2.0533,2.0504,2.0495,2.0477,2.0455,2.0446,2.0423,2.0402,2.0386,2.0376,2.0359,2.0354,2.0345,2.0354,2.0357,2.036,2.036,2.0355,2.0358,2.0326,2.0326,2.0326,0,0,2.0601,2.0579,2.0575,2.0549,2.0532,2.0521,2.0497,2.0486,2.0477,2.0444,2.0432,2.0414,2.0388,2.0379,2.0374,2.0365,2.0367,2.0362,2.0365,2.0363,2.0356,2.0359,2.0362,2.0327,2.0327,2.0327,0,0,2.0622,2.0606,2.0602,2.0586,2.0562,2.0542,2.0541,2.0511,2.0498,2.0486,2.046,2.0449,2.0422,2.0404,2.0392,2.0407,2.0387,2.0403,2.042,2.0415,2.0418,2.042,2.0424,2.0426,2.0403,2.0403,2.0403,0,2.0644,2.0627,2.0602,2.0593,2.0582,2.0553,2.0548,2.0533,2.0504,2.0496,2.0487,2.0453,2.0433,2.0419,2.0423,2.0414,2.0411,2.0405,2.042,2.0421,2.0423,2.0426,2.0428,2.0405,2.0405,2.0405,2.0404,0,2.0654,2.0643,2.0643,2.0617,2.0605,2.0598,2.0571,2.0562,2.0545,2.0526,2.0513,2.0489,2.0466,2.0462,2.0445,2.0445,2.044,2.0426,2.0409,2.0428,2.0431,2.0432,2.0408,2.0407,2.0407,2.0406,0,0,2.0695,2.0656,2.0656,2.0644,2.0615,2.0605,2.0597,2.0576,2.0568,2.055,2.054,2.0519,2.0505,2.0491,2.0472,2.0468,2.048,2.0454,2.0453,2.0458,2.0477,2.0486,2.0488,2.0468,2.0468,2.0468,2.0478,0,2.0711,2.0695,2.0672,2.0663,2.0652,2.0625,2.0618,2.0598,2.0581,2.0567,2.0547,2.0532,2.0516,2.0507,2.0502,2.048,2.0483,2.0479,2.0456,2.0456,2.0462,2.049,2.05,2.0511,2.0479,2.0479,2.048,0,2.0727,2.071,2.0701,2.0672,2.0667,2.0661,2.0639,2.0628,2.0605,2.0592,2.0577,2.0557,2.0544,2.0531,2.0513,2.051,2.05,2.0488,2.0487,2.0483,2.0468,2.0484,2.0514,2.0515,2.0481,2.0481,2.0481,0,2.0756,2.0732,2.0722,2.0713,2.068,2.0676,2.0662,2.0638,2.0627,2.0609,2.0601,2.0581,2.0569,2.0554,2.0528,2.052,2.0512,2.0496,2.0499,2.05,2.0497,2.0497,2.0524,2.0494,2.0494,2.0494,2.0494,0,2.0774,2.0769,2.0735,2.0729,2.0722,2.0696,2.0689,2.0672,2.0652,2.0641,2.0617,2.0607,2.0574,2.056,2.054,2.0527,2.0522,2.051,2.0505,2.0511,2.0513,2.0503,2.0501,2.0494,2.0494,2.0494,2.0494,0,2.0805,2.0782,2.077,2.0741,2.0733,2.0729,2.0703,2.0695,2.0677,2.0663,2.0659,2.0629,2.0611,2.0584,2.0558,2.0544,2.0534,2.0526,2.0542,2.0538,2.0542,2.0542,2.0562,2.0563,2.0534,2.0534,2.0535,0,2.0817,2.0813,2.0783,2.0775,2.0762,2.0749,2.0738,2.0712,2.0701,2.0675,2.0671,2.0651,2.0634,2.0607,2.0581,2.0561,2.0551,2.056,2.0548,2.0554,2.0549,2.0549,2.0548,2.0562,2.0562,2.0563,2.0563,0,2.0841,2.083,2.0816,2.0798,2.0786,2.077,2.0753,2.0747,2.0717,2.0706,2.0689,2.0676,2.0649,2.063,2.0606,2.059,2.0571,2.0568,2.0567,2.0573,2.0582,2.0575,2.0548,2.0567,2.0566,2.0566,2.0566,2.0566,2.0862,2.0856,2.0835,2.0819,2.0804,2.0789,2.078,2.0761,2.0747,2.0724,2.0709,2.0692,2.0669,2.0635,2.062,2.0605,2.0597,2.0596,2.0596,2.0595,2.0597,2.0586,2.0601,2.06,2.06,2.06,2.06,0,2.0883,2.0868,2.0855,2.0832,2.082,2.0806,2.0786,2.0776,2.0762,2.0742,2.0727,2.0706,2.0687,2.0661,2.0639,2.0632,2.0623,2.0627,2.0627,2.0623,2.0606,2.0609,2.0635,2.0635,2.0635,2.0635,2.0635,2.0635,2.0892,2.0882,2.0869,2.085,2.0835,2.0819,2.0809,2.0794,2.0778,2.0757,2.0741,2.0725,2.0702,2.0679,2.0661,2.0653,2.0646,2.0653,2.0643,2.0627,2.0624,2.0621,2.0623,2.0652,2.0652,2.066,2.066,2.066]}]]